Location: Lake Lucerne
(45.5315°N, 88.8489°W)
Time: 21:29:57
(UTC-05:00)

ARIANE 6 FM1 Upper Stage - Pass Details

Date: 19 September 2024
Orbit: 563 x 594 km, 62.0° (Epoch: 09 October)

Event Time Altitude Azimuth Distance (km) Brightness Sun altitude
Exits shadow 05:28:42 -1° 316° (NW) 2,908 6.0 -13.0°
Rises 05:28:52 0° 316° (NW) 2,839 6.0 -13.0°
Reaches altitude 10° 05:31:10 10° 311° (NW) 1,936 5.1 -12.6°
Maximum altitude 05:35:26 53° 235° (SW) 733 2.9 -11.9°
Drops below altitude 10° 05:39:42 10° 158° (SSE) 1,927 5.5 -11.2°
Sets 05:41:58 0° 154° (SSE) 2,824 6.4 -10.8°
